Terminal Aerodrome Forecast
Issued by NWS Midland/Odessa, TX

Home | Current Version | Previous Version | Text Only | Print | Product List | Glossary On
Versions: 1 2 3 4 5 6 7 8 9 10 11 12 13 14 15 16 17 18 19 20 21 22 23
000
FTUS44 KMAF 190500
TAFMAF
TAF
KMAF 190520Z 1906/2006 07006KT P6SM SCT050 OVC100
     FM191000 06005KT P6SM OVC015
      TEMPO 1912/1916 3SM BR OVC004
     FM192000 VRB04KT P6SM SKC=

USA.gov is the U.S. government's official web portal to all federal, state and local government web resources and services.